This demonstration page uses our WeatherBlox Daily Observations layout. Learn more.

Left ArrowRight Arrow

Hourly Observations for September 22, 2020

Temp ( °F °C ) Dew Point ( °F °C ) Humidity (%) Winds ( mph kmh ) Pressure ( in mb ) Visibility ( mi km ) Precip ( " mm )
12:54 am 00:54 Clear 59 15 53 11.7 81 81 S 7 11 30.12 1020 9 14.48406 0 0
1:54 am 01:54 Clear 54 12.2 51 10.6 90 90 S 8 13 30.11 1020 9 14.48406 0 0
2:54 am 02:54 Clear 58 14.4 53 11.7 84 84 S 3 6 30.11 1020 9 14.48406 0 0
3:54 am 03:54 Clear 57 13.9 52 11.1 83 83 SSE 5 7 30.11 1020 9 14.48406 0 0
4:54 am 04:54 Clear 56 13.3 52 11.1 87 87 SE 3 6 30.11 1020 8 12.87472 0 0
5:54 am 05:54 Clear 55 12.8 51 10.6 87 87 SSE 3 6 30.11 1020 8 12.87472 0 0
6:54 am 06:54 Clear 49 9.4 48 8.9 97 97 SSE 8 13 30.13 1020 8 12.87472 0 0
7:54 am 07:54 Sunny 55 12.8 52 11.1 90 90 SSE 3 6 30.13 1020 7 11.26538 0 0
8:54 am 08:54 Sunny 60 15.6 55 12.8 84 84 S 6 9 30.13 1020 7 11.26538 0 0
9:54 am 09:54 Sunny 68 20 57 13.9 68 68 SSW 9 15 30.12 1020 8 12.87472 0 0
10:54 am 10:54 Sunny 75 23.9 57 13.9 54 54 SSW 10 17 30.11 1020 8 12.87472 0 0
11:54 am 11:54 Sunny 78 25.6 56 13.3 47 47 S 14 22 30.09 1019 8 12.87472 0 0
12:54 pm 12:54 Sunny 81 27.2 57 13.9 44 44 SSW 12 19 30.08 1019 8 12.87472 0 0
1:54 pm 13:54 Sunny 82 27.8 56 13.3 41 41 SSW 15 24 30.05 1018 8 12.87472 0 0
2:54 pm 14:54 Sunny 83 28.3 54 12.2 37 37 S 14 22 30.03 1017 8 12.87472 0 0
3:54 pm 15:54 Sunny 83 28.3 54 12.2 37 37 SSW 13 20 30.01 1016 8 12.87472 0 0
4:54 pm 16:54 Sunny 83 28.3 54 12.2 37 37 S 13 20 30 1016 8 12.87472 0 0
5:54 pm 17:54 Sunny 81 27.2 54 12.2 39 39 S 10 17 30 1016 8 12.87472 0 0
6:54 pm 18:54 Sunny 77 25 54 12.2 45 45 SSW 7 11 30 1016 8 12.87472 0 0
7:54 pm 19:54 Clear 72 22.2 54 12.2 53 53 S 6 9 30 1016 9 14.48406 0 0
8:54 pm 20:54 Clear 64 17.8 54 12.2 70 70 S 9 15 30.02 1017 9 14.48406 0 0
9:54 pm 21:54 Clear 65 18.3 56 13.3 73 73 S 8 13 30.01 1016 9 14.48406 0 0
10:54 pm 22:54 Clear 63 17.2 56 13.3 78 78 S 8 13 30.02 1017 9 14.48406 0 0
11:54 pm 23:54 Clear 62 16.7 56 13.3 80 80 SSE 6 9 30.03 1017 9 14.48406 0 0

Powered by AerisWeather